This is the latest recevied weather packets stored in our database for station/object KU9TRY. If no packets are shown the sender has not sent any weather packets the latest 10 day(s).
| Time | Temp. | Humidity | Pressure | Rain* | Wind** | Luminosity | Snow |
|---|---|---|---|---|---|---|---|
| 1787702820 | 24.44° C | 64% | 1016.6 hPa | 0 mm | - | 8 W/m² | - |
| 1787702515 | 25° C | 58% | 1016.5 hPa | 0 mm | - | 11 W/m² | - |
| 1787702210 | 25° C | 57% | 1016.5 hPa | 0 mm | - | 14 W/m² | - |
| 1787701905 | 25° C | 59% | 1016.5 hPa | 0 mm | - | 16 W/m² | - |
| 1787701601 | 25° C | 55% | 1016.5 hPa | 0 mm | - | 17 W/m² | - |
| 1787701296 | 25.56° C | 58% | 1016.5 hPa | 0 mm | - | 19 W/m² | - |
| 1787700987 | 26.11° C | 55% | 1016.6 hPa | 0 mm | - | 21 W/m² | - |
| 1787700687 | 26.11° C | 51% | 1016.6 hPa | 0 mm | - | 23 W/m² | - |
| 1787700384 | 26.11° C | 53% | 1016.7 hPa | 0 mm | - | 24 W/m² | - |
| 1787700079 | 26.11° C | 52% | 1016.6 hPa | 0 mm | - | 24 W/m² | - |
| 1787699775 | 26.11° C | 48% | 1016.6 hPa | 0 mm | - | 25 W/m² | - |
| 1787699470 | 26.11° C | 49% | 1016.7 hPa | 0 mm | - | 26 W/m² | - |
| 1787699166 | 26.11° C | 48% | 1016.5 hPa | 0 mm | - | 26 W/m² | - |
| 1787698862 | 26.11° C | 50% | 1016.5 hPa | 0 mm | - | 27 W/m² | - |
| 1787698557 | 26.11° C | 48% | 1016.5 hPa | 0 mm | - | 28 W/m² | - |
| 1787698253 | 26.11° C | 48% | 1016.7 hPa | 0 mm | - | 28 W/m² | - |
| 1787697949 | 26.11° C | 47% | 1016.5 hPa | 0 mm | - | 29 W/m² | - |
| 1787697648 | 26.11° C | 48% | 1016.5 hPa | 0 mm | - | 30 W/m² | - |
| 1787697344 | 26.11° C | 49% | 1016.7 hPa | 0 mm | - | 30 W/m² | - |
| 1787697039 | 26.11° C | 51% | 1016.8 hPa | 0 mm | - | 31 W/m² | - |
| 1787696735 | 26.67° C | 51% | 1016.9 hPa | 0 mm | - | 31 W/m² | - |
| 1787696431 | 26.67° C | 50% | 1016.8 hPa | 0 mm | - | 32 W/m² | - |
| 1787696126 | 26.67° C | 52% | 1016.9 hPa | 0 mm | - | 32 W/m² | - |
| 1787695825 | 26.67° C | 51% | 1017.1 hPa | 0 mm | - | 33 W/m² | - |
| 1787695521 | 26.67° C | 51% | 1017 hPa | 0 mm | - | 33 W/m² | - |
* Rain latest hour (hover to see other rain measurements)
** Current wind speed in m/s (hover to see current wind gust speed)